Year,Month,Day,Hour,Minute,Value (Times are PST for temperature in C)
2015,02,19,00,00,6.50
2015,02,19,00,01,6.60
2015,02,19,00,02,6.60
2015,02,19,00,03,6.70
2015,02,19,00,04,6.70
2015,02,19,00,05,6.80
2015,02,19,00,06,6.80
2015,02,19,00,07,6.80
2015,02,19,00,08,6.80
2015,02,19,00,09,6.80
2015,02,19,00,10,6.80
2015,02,19,00,11,6.70
2015,02,19,00,12,6.60
2015,02,19,00,13,6.50
2015,02,19,00,14,6.40
2015,02,19,00,15,6.30
2015,02,19,00,16,6.20
2015,02,19,00,17,6.10
2015,02,19,00,18,5.90
2015,02,19,00,19,5.80
2015,02,19,00,20,5.70
2015,02,19,00,21,5.70
2015,02,19,00,22,5.60
2015,02,19,00,23,5.60
2015,02,19,00,24,5.60
2015,02,19,00,25,5.50
2015,02,19,00,26,5.50
2015,02,19,00,27,5.40
2015,02,19,00,28,5.40
2015,02,19,00,29,5.40
2015,02,19,00,30,5.40
2015,02,19,00,31,5.40
2015,02,19,00,32,5.40
2015,02,19,00,33,5.40
2015,02,19,00,34,5.40
2015,02,19,00,35,5.50
2015,02,19,00,36,5.50
2015,02,19,00,37,5.60
2015,02,19,00,38,5.60
2015,02,19,00,39,5.60
2015,02,19,00,40,5.80
2015,02,19,00,41,5.90
2015,02,19,00,42,5.90
2015,02,19,00,43,6.00
2015,02,19,00,44,6.10
2015,02,19,00,45,6.10
2015,02,19,00,46,6.20
2015,02,19,00,47,6.20
2015,02,19,00,48,6.20
2015,02,19,00,49,6.20
2015,02,19,00,50,6.20
2015,02,19,00,51,6.30
2015,02,19,00,52,6.30
2015,02,19,00,53,6.30
2015,02,19,00,54,6.30
2015,02,19,00,55,6.30
2015,02,19,00,56,6.30
2015,02,19,00,57,6.30
2015,02,19,00,58,6.20
2015,02,19,00,59,6.10
2015,02,19,01,00,6.10
2015,02,19,01,01,6.10
2015,02,19,01,02,6.00
2015,02,19,01,03,6.00
2015,02,19,01,04,5.90
2015,02,19,01,05,5.90
2015,02,19,01,06,5.80
2015,02,19,01,07,5.80
2015,02,19,01,08,5.80
2015,02,19,01,09,5.80
2015,02,19,01,10,5.80
2015,02,19,01,11,6.00
2015,02,19,01,12,6.10
2015,02,19,01,13,6.20
2015,02,19,01,14,6.20
2015,02,19,01,15,6.20
2015,02,19,01,16,6.30
2015,02,19,01,17,6.30
2015,02,19,01,18,6.30
2015,02,19,01,19,6.30
2015,02,19,01,20,6.30
2015,02,19,01,21,6.30
2015,02,19,01,22,6.30
2015,02,19,01,23,6.20
2015,02,19,01,24,6.10
2015,02,19,01,25,6.00
2015,02,19,01,26,5.90
2015,02,19,01,27,5.80
2015,02,19,01,28,5.70
2015,02,19,01,29,5.70
2015,02,19,01,30,5.60
2015,02,19,01,31,5.60
2015,02,19,01,32,5.60
2015,02,19,01,33,5.50
2015,02,19,01,34,5.50
2015,02,19,01,35,5.40
2015,02,19,01,36,5.40
2015,02,19,01,37,5.40
2015,02,19,01,38,5.40
2015,02,19,01,39,5.40
2015,02,19,01,40,5.50
2015,02,19,01,41,5.50
2015,02,19,01,42,5.60
2015,02,19,01,43,5.60
2015,02,19,01,44,5.60
2015,02,19,01,45,5.60
2015,02,19,01,46,5.50
2015,02,19,01,47,5.50
2015,02,19,01,48,5.40
2015,02,19,01,49,5.50
2015,02,19,01,50,5.60
2015,02,19,01,51,5.60
2015,02,19,01,52,5.70
2015,02,19,01,53,5.70
2015,02,19,01,54,5.70
2015,02,19,01,55,5.70
2015,02,19,01,56,5.60
2015,02,19,01,57,5.60
2015,02,19,01,58,5.60
2015,02,19,01,59,5.70
2015,02,19,02,00,5.70
2015,02,19,02,01,5.70
2015,02,19,02,02,5.80
2015,02,19,02,03,5.80
2015,02,19,02,04,5.80
2015,02,19,02,05,5.70
2015,02,19,02,06,5.70
2015,02,19,02,07,5.60
2015,02,19,02,08,5.50
2015,02,19,02,09,5.40
2015,02,19,02,10,5.40
2015,02,19,02,11,5.50
2015,02,19,02,12,5.50
2015,02,19,02,13,5.50
2015,02,19,02,14,5.50
2015,02,19,02,15,5.50
2015,02,19,02,16,5.50
2015,02,19,02,17,5.50
2015,02,19,02,18,5.40
2015,02,19,02,19,5.40
2015,02,19,02,20,5.40
2015,02,19,02,21,5.30
2015,02,19,02,22,5.30
2015,02,19,02,23,5.20
2015,02,19,02,24,5.20
2015,02,19,02,25,5.20
2015,02,19,02,26,5.20
2015,02,19,02,27,5.30
2015,02,19,02,28,5.30
2015,02,19,02,29,5.30
2015,02,19,02,30,5.40
2015,02,19,02,31,5.40
2015,02,19,02,32,5.50
2015,02,19,02,33,5.50
2015,02,19,02,34,5.60
2015,02,19,02,35,5.60
2015,02,19,02,36,5.80
2015,02,19,02,37,5.90
2015,02,19,02,38,5.90
2015,02,19,02,39,5.90
2015,02,19,02,40,5.90
2015,02,19,02,41,5.90
2015,02,19,02,42,5.90
2015,02,19,02,43,5.80
2015,02,19,02,44,5.80
2015,02,19,02,45,5.80
2015,02,19,02,46,5.70
2015,02,19,02,47,5.70
2015,02,19,02,48,5.70
2015,02,19,02,49,5.70
2015,02,19,02,50,5.60
2015,02,19,02,51,5.60
2015,02,19,02,52,5.60
2015,02,19,02,53,5.60
2015,02,19,02,54,5.50
2015,02,19,02,55,5.50
2015,02,19,02,56,5.40
2015,02,19,02,57,5.30
2015,02,19,02,58,5.20
2015,02,19,02,59,5.20
2015,02,19,03,00,5.20
2015,02,19,03,01,5.20
2015,02,19,03,02,5.20
2015,02,19,03,03,5.20
2015,02,19,03,04,5.10
2015,02,19,03,05,5.10
2015,02,19,03,06,5.10
2015,02,19,03,07,5.10
2015,02,19,03,08,5.20
2015,02,19,03,09,5.20
2015,02,19,03,10,5.20
2015,02,19,03,11,5.20
2015,02,19,03,12,5.10
2015,02,19,03,13,5.10
2015,02,19,03,14,5.10
2015,02,19,03,15,5.10
2015,02,19,03,16,5.10
2015,02,19,03,17,5.10
2015,02,19,03,18,5.10
2015,02,19,03,19,5.10
2015,02,19,03,20,5.10
2015,02,19,03,21,5.10
2015,02,19,03,22,5.10
2015,02,19,03,23,5.10
2015,02,19,03,24,5.10
2015,02,19,03,25,5.00
2015,02,19,03,26,5.00
2015,02,19,03,27,5.00
2015,02,19,03,28,5.00
2015,02,19,03,29,5.00
2015,02,19,03,30,5.00
2015,02,19,03,31,5.00
2015,02,19,03,32,5.00
2015,02,19,03,33,4.90
2015,02,19,03,34,4.90
2015,02,19,03,35,4.80
2015,02,19,03,36,4.80
2015,02,19,03,37,4.90
2015,02,19,03,38,4.90
2015,02,19,03,39,4.90
2015,02,19,03,40,4.90
2015,02,19,03,41,4.80
2015,02,19,03,42,4.80
2015,02,19,03,43,4.80
2015,02,19,03,44,4.80
2015,02,19,03,45,4.80
2015,02,19,03,46,4.80
2015,02,19,03,47,4.80
2015,02,19,03,48,4.80
2015,02,19,03,49,4.80
2015,02,19,03,50,4.70
2015,02,19,03,51,4.70
2015,02,19,03,52,4.70
2015,02,19,03,53,4.70
2015,02,19,03,54,4.70
2015,02,19,03,55,4.70
2015,02,19,03,56,4.60
2015,02,19,03,57,4.60
2015,02,19,03,58,4.60
2015,02,19,03,59,4.60
2015,02,19,04,00,4.60
2015,02,19,04,01,4.50
2015,02,19,04,02,4.50
2015,02,19,04,03,4.40
2015,02,19,04,04,4.40
2015,02,19,04,05,4.40
2015,02,19,04,06,4.40
2015,02,19,04,07,4.50
2015,02,19,04,08,4.50
2015,02,19,04,09,4.60
2015,02,19,04,10,4.60
2015,02,19,04,11,4.60
2015,02,19,04,12,4.60
2015,02,19,04,13,4.60
2015,02,19,04,14,4.60
2015,02,19,04,15,4.60
2015,02,19,04,16,4.60
2015,02,19,04,17,4.70
2015,02,19,04,18,4.70
2015,02,19,04,19,4.70
2015,02,19,04,20,4.60
2015,02,19,04,21,4.50
2015,02,19,04,22,4.50
2015,02,19,04,23,4.40
2015,02,19,04,24,4.40
2015,02,19,04,25,4.40
2015,02,19,04,26,4.30
2015,02,19,04,27,4.30
2015,02,19,04,28,4.30
2015,02,19,04,29,4.30
2015,02,19,04,30,4.30
2015,02,19,04,31,4.40
2015,02,19,04,32,4.50
2015,02,19,04,33,4.50
2015,02,19,04,34,4.60
2015,02,19,04,35,4.50
2015,02,19,04,36,4.50
2015,02,19,04,37,4.50
2015,02,19,04,38,4.40
2015,02,19,04,39,4.40
2015,02,19,04,40,4.40
2015,02,19,04,41,4.40
2015,02,19,04,42,4.30
2015,02,19,04,43,4.20
2015,02,19,04,44,4.20
2015,02,19,04,45,4.20
2015,02,19,04,46,4.20
2015,02,19,04,47,4.20
2015,02,19,04,48,4.20
2015,02,19,04,49,4.10
2015,02,19,04,50,4.10
2015,02,19,04,51,4.10
2015,02,19,04,52,4.10
2015,02,19,04,53,4.10
2015,02,19,04,54,4.10
2015,02,19,04,55,4.00
2015,02,19,04,56,4.00
2015,02,19,04,57,4.00
2015,02,19,04,58,3.90
2015,02,19,04,59,3.90
2015,02,19,05,00,4.00
2015,02,19,05,01,4.00
2015,02,19,05,02,4.00
2015,02,19,05,03,4.00
2015,02,19,05,04,4.00
2015,02,19,05,05,4.00
2015,02,19,05,06,4.00
2015,02,19,05,07,4.00
2015,02,19,05,08,4.00
2015,02,19,05,09,4.00
2015,02,19,05,10,4.10
2015,02,19,05,11,4.10
2015,02,19,05,12,4.20
2015,02,19,05,13,4.20
2015,02,19,05,14,4.20
2015,02,19,05,15,4.20
2015,02,19,05,16,4.20
2015,02,19,05,17,4.20
2015,02,19,05,18,4.20
2015,02,19,05,19,4.10
2015,02,19,05,20,4.10
2015,02,19,05,21,4.10
2015,02,19,05,22,4.10
2015,02,19,05,23,4.10
2015,02,19,05,24,4.10
2015,02,19,05,25,4.10
2015,02,19,05,26,4.00
2015,02,19,05,27,4.00
2015,02,19,05,28,4.00
2015,02,19,05,29,4.00
2015,02,19,05,30,4.00
2015,02,19,05,31,4.00
2015,02,19,05,32,4.00
2015,02,19,05,33,4.00
2015,02,19,05,34,4.00
2015,02,19,05,35,4.00
2015,02,19,05,36,4.00
2015,02,19,05,37,4.00
2015,02,19,05,38,4.00
2015,02,19,05,39,4.00
2015,02,19,05,40,4.00
2015,02,19,05,41,3.90
2015,02,19,05,42,3.90
2015,02,19,05,43,3.90
2015,02,19,05,44,3.90
2015,02,19,05,45,3.80
2015,02,19,05,46,3.80
2015,02,19,05,47,3.80
2015,02,19,05,48,3.80
2015,02,19,05,49,3.80
2015,02,19,05,50,3.80
2015,02,19,05,51,3.80
2015,02,19,05,52,3.80
2015,02,19,05,53,3.80
2015,02,19,05,54,3.80
2015,02,19,05,55,3.80
2015,02,19,05,56,3.80
2015,02,19,05,57,3.80
2015,02,19,05,58,3.80
2015,02,19,05,59,3.70
2015,02,19,06,00,3.70
2015,02,19,06,01,3.70
2015,02,19,06,02,3.70
2015,02,19,06,03,3.70
2015,02,19,06,04,3.70
2015,02,19,06,05,3.60
2015,02,19,06,06,3.60
2015,02,19,06,07,3.60
2015,02,19,06,08,3.60
2015,02,19,06,09,3.70
2015,02,19,06,10,3.70
2015,02,19,06,11,3.70
2015,02,19,06,12,3.70
2015,02,19,06,13,3.70
2015,02,19,06,14,3.70
2015,02,19,06,15,3.70
2015,02,19,06,16,3.70
2015,02,19,06,17,3.70
2015,02,19,06,18,3.70
2015,02,19,06,19,3.80
2015,02,19,06,20,3.70
2015,02,19,06,21,3.70
2015,02,19,06,22,3.70
2015,02,19,06,23,3.70
2015,02,19,06,24,3.70
2015,02,19,06,25,3.70
2015,02,19,06,26,3.80
2015,02,19,06,27,3.80
2015,02,19,06,28,3.80
2015,02,19,06,29,3.80
2015,02,19,06,30,3.80
2015,02,19,06,31,3.80
2015,02,19,06,32,3.70
2015,02,19,06,33,3.80
2015,02,19,06,34,3.70
2015,02,19,06,35,3.70
2015,02,19,06,36,3.70
2015,02,19,06,37,3.70
2015,02,19,06,38,3.70
2015,02,19,06,39,3.80
2015,02,19,06,40,3.80
2015,02,19,06,41,3.80
2015,02,19,06,42,3.80
2015,02,19,06,43,3.80
2015,02,19,06,44,3.80
2015,02,19,06,45,3.80
2015,02,19,06,46,3.80
2015,02,19,06,47,3.80
2015,02,19,06,48,3.80
2015,02,19,06,49,3.80
2015,02,19,06,50,3.80
2015,02,19,06,51,3.80
2015,02,19,06,52,3.90
2015,02,19,06,53,3.90
2015,02,19,06,54,3.90
2015,02,19,06,55,3.90
2015,02,19,06,56,3.90
2015,02,19,06,57,3.90
2015,02,19,06,58,3.90
2015,02,19,06,59,3.90
2015,02,19,07,00,3.90
2015,02,19,07,01,3.90
2015,02,19,07,02,3.90
2015,02,19,07,03,3.80
2015,02,19,07,04,3.80
2015,02,19,07,05,3.80
2015,02,19,07,06,3.80
2015,02,19,07,07,3.80
2015,02,19,07,08,3.80
2015,02,19,07,09,3.80
2015,02,19,07,10,3.80
2015,02,19,07,11,3.80
2015,02,19,07,12,3.80
2015,02,19,07,13,3.70
2015,02,19,07,14,3.70
2015,02,19,07,15,3.70
2015,02,19,07,16,3.70
2015,02,19,07,17,3.70
2015,02,19,07,18,3.70
2015,02,19,07,19,3.70
2015,02,19,07,20,3.70
2015,02,19,07,21,3.70
2015,02,19,07,22,3.70
2015,02,19,07,23,3.70
2015,02,19,07,24,3.70
2015,02,19,07,25,3.70
2015,02,19,07,26,3.70
2015,02,19,07,27,3.80
2015,02,19,07,28,3.80
2015,02,19,07,29,3.80
2015,02,19,07,30,3.80
2015,02,19,07,31,3.90
2015,02,19,07,32,3.90
2015,02,19,07,33,3.90
2015,02,19,07,34,3.90
2015,02,19,07,35,3.90
2015,02,19,07,36,3.90
2015,02,19,07,37,3.90
2015,02,19,07,38,3.90
2015,02,19,07,39,3.90
2015,02,19,07,40,3.90
2015,02,19,07,41,3.90
2015,02,19,07,42,3.90
2015,02,19,07,43,3.80
2015,02,19,07,44,3.80
2015,02,19,07,45,3.90
2015,02,19,07,46,3.90
2015,02,19,07,47,3.90
2015,02,19,07,48,3.90
2015,02,19,07,49,3.90
2015,02,19,07,50,3.90
2015,02,19,07,51,3.90
2015,02,19,07,52,3.90
2015,02,19,07,53,3.90
2015,02,19,07,54,3.90
2015,02,19,07,55,3.90
2015,02,19,07,56,3.90
2015,02,19,07,57,3.90
2015,02,19,07,58,3.90
2015,02,19,07,59,4.00
2015,02,19,08,00,4.00
2015,02,19,08,01,4.00
2015,02,19,08,02,4.00
2015,02,19,08,03,4.10
2015,02,19,08,04,4.10
2015,02,19,08,05,4.10
2015,02,19,08,06,4.20
2015,02,19,08,07,4.20
2015,02,19,08,08,4.30
2015,02,19,08,09,4.30
2015,02,19,08,10,4.30
2015,02,19,08,11,4.30
2015,02,19,08,12,4.30
2015,02,19,08,13,4.30
2015,02,19,08,14,4.30
2015,02,19,08,15,4.30
2015,02,19,08,16,4.40
2015,02,19,08,17,4.40
2015,02,19,08,18,4.40
2015,02,19,08,19,4.40
2015,02,19,08,20,4.40
2015,02,19,08,21,4.30
2015,02,19,08,22,4.30
2015,02,19,08,23,4.40
2015,02,19,08,24,4.40
2015,02,19,08,25,4.40
2015,02,19,08,26,4.40
2015,02,19,08,27,4.50
2015,02,19,08,28,4.50
2015,02,19,08,29,4.50
2015,02,19,08,30,4.60
2015,02,19,08,31,4.60
2015,02,19,08,32,4.60
2015,02,19,08,33,4.60
2015,02,19,08,34,4.70
2015,02,19,08,35,4.70
2015,02,19,08,36,4.70
2015,02,19,08,37,4.80
2015,02,19,08,38,4.80
2015,02,19,08,39,4.80
2015,02,19,08,40,4.80
2015,02,19,08,41,4.90
2015,02,19,08,42,4.90
2015,02,19,08,43,4.90
2015,02,19,08,44,4.90
2015,02,19,08,45,4.90
2015,02,19,08,46,4.90
2015,02,19,08,47,5.00
2015,02,19,08,48,5.00
2015,02,19,08,49,5.10
2015,02,19,08,50,5.10
2015,02,19,08,51,5.20
2015,02,19,08,52,5.20
2015,02,19,08,53,5.20
2015,02,19,08,54,5.30
2015,02,19,08,55,5.30
2015,02,19,08,56,5.40
2015,02,19,08,57,5.40
2015,02,19,08,58,5.40
2015,02,19,08,59,5.50
2015,02,19,09,00,5.50
2015,02,19,09,01,5.60
2015,02,19,09,02,5.60
2015,02,19,09,03,5.70
2015,02,19,09,04,5.70
2015,02,19,09,05,5.70
2015,02,19,09,06,5.80
2015,02,19,09,07,5.80
2015,02,19,09,08,5.80
2015,02,19,09,09,5.80
2015,02,19,09,10,5.80
2015,02,19,09,11,5.80
2015,02,19,09,12,5.90
2015,02,19,09,13,5.90
2015,02,19,09,14,5.90
2015,02,19,09,15,5.90
2015,02,19,09,16,5.90
2015,02,19,09,17,5.90
2015,02,19,09,18,5.90
2015,02,19,09,19,6.00
2015,02,19,09,20,6.00
2015,02,19,09,21,6.10
2015,02,19,09,22,6.10
2015,02,19,09,23,6.10
2015,02,19,09,24,6.10
2015,02,19,09,25,6.20
2015,02,19,09,26,6.20
2015,02,19,09,27,6.20
2015,02,19,09,28,6.20
2015,02,19,09,29,6.20
2015,02,19,09,30,6.20
2015,02,19,09,31,6.20
2015,02,19,09,32,6.30
2015,02,19,09,33,6.30
2015,02,19,09,34,6.30
2015,02,19,09,35,6.30
2015,02,19,09,36,6.30
2015,02,19,09,37,6.30
2015,02,19,09,38,6.30
2015,02,19,09,39,6.30
2015,02,19,09,40,6.30
2015,02,19,09,41,6.30
2015,02,19,09,42,6.30
2015,02,19,09,43,6.30
2015,02,19,09,44,6.30
2015,02,19,09,45,6.30
2015,02,19,09,46,6.30
2015,02,19,09,47,6.30
2015,02,19,09,48,6.40
2015,02,19,09,49,6.30
2015,02,19,09,50,6.40
2015,02,19,09,51,6.40
2015,02,19,09,52,6.40
2015,02,19,09,53,6.40
2015,02,19,09,54,6.40
2015,02,19,09,55,6.50
2015,02,19,09,56,6.50
2015,02,19,09,57,6.50
2015,02,19,09,58,6.60
2015,02,19,09,59,6.60
2015,02,19,10,00,6.60
2015,02,19,10,01,6.70
2015,02,19,10,02,6.70
2015,02,19,10,03,6.70
2015,02,19,10,04,6.70
2015,02,19,10,05,6.70
2015,02,19,10,06,6.80
2015,02,19,10,07,6.80
2015,02,19,10,08,6.80
2015,02,19,10,09,6.80
2015,02,19,10,10,6.80
2015,02,19,10,11,6.90
2015,02,19,10,12,6.90
2015,02,19,10,13,6.90
2015,02,19,10,14,6.90
2015,02,19,10,15,6.90
2015,02,19,10,16,6.90
2015,02,19,10,17,6.90
2015,02,19,10,18,7.00
2015,02,19,10,19,7.00
2015,02,19,10,20,7.10
2015,02,19,10,21,7.10
2015,02,19,10,22,7.10
2015,02,19,10,23,7.10
2015,02,19,10,24,7.10
2015,02,19,10,25,7.20
2015,02,19,10,26,7.10
2015,02,19,10,27,7.20
2015,02,19,10,28,7.20
2015,02,19,10,29,7.20
2015,02,19,10,30,7.20
2015,02,19,10,31,7.20
2015,02,19,10,32,7.20
2015,02,19,10,33,7.30
2015,02,19,10,34,7.30
2015,02,19,10,35,7.30
2015,02,19,10,36,7.40
2015,02,19,10,37,7.40
2015,02,19,10,38,7.50
2015,02,19,10,39,7.50
2015,02,19,10,40,7.60
2015,02,19,10,41,7.60
2015,02,19,10,42,7.60
2015,02,19,10,43,7.60
2015,02,19,10,44,7.60
2015,02,19,10,45,7.70
2015,02,19,10,46,7.70
2015,02,19,10,47,7.70
2015,02,19,10,48,7.70
2015,02,19,10,49,7.70
2015,02,19,10,50,7.80
2015,02,19,10,51,7.80
2015,02,19,10,52,7.80
2015,02,19,10,53,7.90
2015,02,19,10,54,7.90
2015,02,19,10,55,7.90
2015,02,19,10,56,8.00
2015,02,19,10,57,8.00
2015,02,19,10,58,8.00
2015,02,19,10,59,8.10
2015,02,19,11,00,8.10
2015,02,19,11,01,8.20
2015,02,19,11,02,8.20
2015,02,19,11,03,8.20
2015,02,19,11,04,8.30
2015,02,19,11,05,8.30
2015,02,19,11,06,8.30
2015,02,19,11,07,8.30
2015,02,19,11,08,8.40
2015,02,19,11,09,8.40
2015,02,19,11,10,8.30
2015,02,19,11,11,8.30
2015,02,19,11,12,8.30
2015,02,19,11,13,8.20
2015,02,19,11,14,8.20
2015,02,19,11,15,8.10
2015,02,19,11,16,8.10
2015,02,19,11,17,8.00
2015,02,19,11,18,8.00
2015,02,19,11,19,7.90
2015,02,19,11,20,7.90
2015,02,19,11,21,7.90
2015,02,19,11,22,7.80
2015,02,19,11,23,7.80
2015,02,19,11,24,7.80
2015,02,19,11,25,7.80
2015,02,19,11,26,7.80
2015,02,19,11,27,7.80
2015,02,19,11,28,7.80
2015,02,19,11,29,7.80
2015,02,19,11,30,7.80
2015,02,19,11,31,7.80
2015,02,19,11,32,7.80
2015,02,19,11,33,7.80
2015,02,19,11,34,7.80
2015,02,19,11,35,7.80
2015,02,19,11,36,7.80
2015,02,19,11,37,7.80
2015,02,19,11,38,7.80
2015,02,19,11,39,7.80
2015,02,19,11,40,7.80
2015,02,19,11,41,7.80
2015,02,19,11,42,7.80
2015,02,19,11,43,7.80
2015,02,19,11,44,7.80
2015,02,19,11,45,7.80
2015,02,19,11,46,7.80
2015,02,19,11,47,7.80
2015,02,19,11,48,7.80
2015,02,19,11,49,7.90
2015,02,19,11,50,7.90
2015,02,19,11,51,7.90
2015,02,19,11,52,7.90
2015,02,19,11,53,7.90
2015,02,19,11,54,7.90
2015,02,19,11,55,8.00
2015,02,19,11,56,8.00
2015,02,19,11,57,8.00
2015,02,19,11,58,8.00
2015,02,19,11,59,8.10
2015,02,19,12,00,8.10
2015,02,19,12,01,8.10
2015,02,19,12,02,8.10
2015,02,19,12,03,8.10
2015,02,19,12,04,8.10
2015,02,19,12,05,8.20
2015,02,19,12,06,8.20
2015,02,19,12,07,8.20
2015,02,19,12,08,8.20
2015,02,19,12,09,8.20
2015,02,19,12,10,8.30
2015,02,19,12,11,8.30
2015,02,19,12,12,8.30
2015,02,19,12,13,8.30
2015,02,19,12,14,8.40
2015,02,19,12,15,8.40
2015,02,19,12,16,8.50
2015,02,19,12,17,8.50
2015,02,19,12,18,8.60
2015,02,19,12,19,8.60
2015,02,19,12,20,8.60
2015,02,19,12,21,8.70
2015,02,19,12,22,8.70
2015,02,19,12,23,8.70
2015,02,19,12,24,8.80
2015,02,19,12,25,8.80
2015,02,19,12,26,8.80
2015,02,19,12,27,8.90
2015,02,19,12,28,8.90
2015,02,19,12,29,9.00
2015,02,19,12,30,9.00
2015,02,19,12,31,9.10
2015,02,19,12,32,9.20
2015,02,19,12,33,9.20
2015,02,19,12,34,9.20
2015,02,19,12,35,9.20
2015,02,19,12,36,9.30
2015,02,19,12,37,9.30
2015,02,19,12,38,9.40
2015,02,19,12,39,9.40
2015,02,19,12,40,9.40
2015,02,19,12,41,9.40
2015,02,19,12,42,9.50
2015,02,19,12,43,9.50
2015,02,19,12,44,9.60
2015,02,19,12,45,9.60
2015,02,19,12,46,9.70
2015,02,19,12,47,9.80
2015,02,19,12,48,9.80
2015,02,19,12,49,9.90
2015,02,19,12,50,10.00
2015,02,19,12,51,10.10
2015,02,19,12,52,10.10
2015,02,19,12,53,10.20
2015,02,19,12,54,10.20
2015,02,19,12,55,10.20
2015,02,19,12,56,10.30
2015,02,19,12,57,10.30
2015,02,19,12,58,10.30
2015,02,19,12,59,10.40
2015,02,19,13,00,10.40
2015,02,19,13,01,10.50
2015,02,19,13,02,10.60
2015,02,19,13,03,10.70
2015,02,19,13,04,10.70
2015,02,19,13,05,10.80
2015,02,19,13,06,10.80
2015,02,19,13,07,10.80
2015,02,19,13,08,10.80
2015,02,19,13,09,10.80
2015,02,19,13,10,10.80
2015,02,19,13,11,10.80
2015,02,19,13,12,10.80
2015,02,19,13,13,10.90
2015,02,19,13,14,10.90
2015,02,19,13,15,11.00
2015,02,19,13,16,11.00
2015,02,19,13,17,11.00
2015,02,19,13,18,11.00
2015,02,19,13,19,11.10
2015,02,19,13,20,11.10
2015,02,19,13,21,11.10
2015,02,19,13,22,11.10
2015,02,19,13,23,11.10
2015,02,19,13,24,11.10
2015,02,19,13,25,11.10
2015,02,19,13,26,11.10
2015,02,19,13,27,11.10
2015,02,19,13,28,11.20
2015,02,19,13,29,11.20
2015,02,19,13,30,11.20
2015,02,19,13,31,11.20
2015,02,19,13,32,11.20
2015,02,19,13,33,11.20
2015,02,19,13,34,11.20
2015,02,19,13,35,11.10
2015,02,19,13,36,11.10
2015,02,19,13,37,11.10
2015,02,19,13,38,11.10
2015,02,19,13,39,11.10
2015,02,19,13,40,11.10
2015,02,19,13,41,11.10
2015,02,19,13,42,11.10
2015,02,19,13,43,11.10
2015,02,19,13,44,11.10
2015,02,19,13,45,11.10
2015,02,19,13,46,11.10
2015,02,19,13,47,11.10
2015,02,19,13,48,11.10
2015,02,19,13,49,11.10
2015,02,19,13,50,11.20
2015,02,19,13,51,11.20
2015,02,19,13,52,11.20
2015,02,19,13,53,11.20
2015,02,19,13,54,11.20
2015,02,19,13,55,11.10
2015,02,19,13,56,11.20
2015,02,19,13,57,11.20
2015,02,19,13,58,11.20
2015,02,19,13,59,11.20
2015,02,19,14,00,11.20
2015,02,19,14,01,11.20
2015,02,19,14,02,11.20
2015,02,19,14,03,11.20
2015,02,19,14,04,11.20
2015,02,19,14,05,11.20
2015,02,19,14,06,11.20
2015,02,19,14,07,11.20
2015,02,19,14,08,11.20
2015,02,19,14,09,11.20
2015,02,19,14,10,11.20
2015,02,19,14,11,11.20
2015,02,19,14,12,11.30
2015,02,19,14,13,11.30
2015,02,19,14,14,11.30
2015,02,19,14,15,11.30
2015,02,19,14,16,11.30
2015,02,19,14,17,11.30
2015,02,19,14,18,11.30
2015,02,19,14,19,11.30
2015,02,19,14,20,11.30
2015,02,19,14,21,11.30
2015,02,19,14,22,11.40
2015,02,19,14,23,11.40
2015,02,19,14,24,11.40
2015,02,19,14,25,11.40
2015,02,19,14,26,11.40
2015,02,19,14,27,11.40
2015,02,19,14,28,11.40
2015,02,19,14,29,11.40
2015,02,19,14,30,11.40
2015,02,19,14,31,11.40
2015,02,19,14,32,11.50
2015,02,19,14,33,11.50
2015,02,19,14,34,11.60
2015,02,19,14,35,11.60
2015,02,19,14,36,11.60
2015,02,19,14,37,11.70
2015,02,19,14,38,11.70
2015,02,19,14,39,11.80
2015,02,19,14,40,11.80
2015,02,19,14,41,11.80
2015,02,19,14,42,11.80
2015,02,19,14,43,11.80
2015,02,19,14,44,11.90
2015,02,19,14,45,11.90
2015,02,19,14,46,11.90
2015,02,19,14,47,11.90
2015,02,19,14,48,11.90
2015,02,19,14,49,11.90
2015,02,19,14,50,11.80
2015,02,19,14,51,11.80
2015,02,19,14,52,11.80
2015,02,19,14,53,11.80
2015,02,19,14,54,11.80
2015,02,19,14,55,11.80
2015,02,19,14,56,11.80
2015,02,19,14,57,11.90
2015,02,19,14,58,11.90
2015,02,19,14,59,11.90
2015,02,19,15,00,11.90
2015,02,19,15,01,11.90
2015,02,19,15,02,11.90
2015,02,19,15,03,11.90
2015,02,19,15,04,11.90
2015,02,19,15,05,11.90
2015,02,19,15,06,11.90
2015,02,19,15,07,11.90
2015,02,19,15,08,11.90
2015,02,19,15,09,12.00
2015,02,19,15,10,12.00
2015,02,19,15,11,12.00
2015,02,19,15,12,12.00
2015,02,19,15,13,12.00
2015,02,19,15,14,12.00
2015,02,19,15,15,12.00
2015,02,19,15,16,12.00
2015,02,19,15,17,12.00
2015,02,19,15,18,12.00
2015,02,19,15,19,11.90
2015,02,19,15,20,11.90
2015,02,19,15,21,11.90
2015,02,19,15,22,11.90
2015,02,19,15,23,11.80
2015,02,19,15,24,11.80
2015,02,19,15,25,11.80
2015,02,19,15,26,11.70
2015,02,19,15,27,11.70
2015,02,19,15,28,11.70
2015,02,19,15,29,11.70
2015,02,19,15,30,11.70
2015,02,19,15,31,11.70
2015,02,19,15,32,11.60
2015,02,19,15,33,11.60
2015,02,19,15,34,11.60
2015,02,19,15,35,11.60
2015,02,19,15,36,11.70
2015,02,19,15,37,11.70
2015,02,19,15,38,11.70
2015,02,19,15,39,11.70
2015,02,19,15,40,11.70
2015,02,19,15,41,11.70
2015,02,19,15,42,11.70
2015,02,19,15,43,11.70
2015,02,19,15,44,11.70
2015,02,19,15,45,11.70
2015,02,19,15,46,11.70
2015,02,19,15,47,11.70
2015,02,19,15,48,11.70
2015,02,19,15,49,11.70
2015,02,19,15,50,11.70
2015,02,19,15,51,11.70
2015,02,19,15,52,11.70
2015,02,19,15,53,11.70
2015,02,19,15,54,11.70
2015,02,19,15,55,11.70
2015,02,19,15,56,11.70
2015,02,19,15,57,11.70
2015,02,19,15,58,11.70
2015,02,19,15,59,11.70
2015,02,19,16,00,11.80
2015,02,19,16,01,11.80
2015,02,19,16,02,11.80
2015,02,19,16,03,11.80
2015,02,19,16,04,11.80
2015,02,19,16,05,11.80
2015,02,19,16,06,11.80
2015,02,19,16,07,11.80
2015,02,19,16,08,11.90
2015,02,19,16,09,11.90
2015,02,19,16,10,11.90
2015,02,19,16,11,11.90
2015,02,19,16,12,11.90
2015,02,19,16,13,11.90
2015,02,19,16,14,11.90
2015,02,19,16,15,11.90
2015,02,19,16,16,11.80
2015,02,19,16,17,11.80
2015,02,19,16,18,11.80
2015,02,19,16,19,11.90
2015,02,19,16,20,11.80
2015,02,19,16,21,11.90
2015,02,19,16,22,11.90
2015,02,19,16,23,11.90
2015,02,19,16,24,11.90
2015,02,19,16,25,11.90
2015,02,19,16,26,11.90
2015,02,19,16,27,11.90
2015,02,19,16,28,11.90
2015,02,19,16,29,11.90
2015,02,19,16,30,11.80
2015,02,19,16,31,11.80
2015,02,19,16,32,11.80
2015,02,19,16,33,11.80
2015,02,19,16,34,11.80
2015,02,19,16,35,11.90
2015,02,19,16,36,11.90
2015,02,19,16,37,11.90
2015,02,19,16,38,11.90
2015,02,19,16,39,11.90
2015,02,19,16,40,11.90
2015,02,19,16,41,11.90
2015,02,19,16,42,11.90
2015,02,19,16,43,11.90
2015,02,19,16,44,11.90
2015,02,19,16,45,11.90
2015,02,19,16,46,11.90
2015,02,19,16,47,11.80
2015,02,19,16,48,11.80
2015,02,19,16,49,11.70
2015,02,19,16,50,11.60
2015,02,19,16,51,11.50
2015,02,19,16,52,11.50
2015,02,19,16,53,11.40
2015,02,19,16,54,11.40
2015,02,19,16,55,11.30
2015,02,19,16,56,11.30
2015,02,19,16,57,11.30
2015,02,19,16,58,11.20
2015,02,19,16,59,11.20
2015,02,19,17,00,11.20
2015,02,19,17,01,11.20
2015,02,19,17,02,11.20
2015,02,19,17,03,11.20
2015,02,19,17,04,11.20
2015,02,19,17,05,11.20
2015,02,19,17,06,11.20
2015,02,19,17,07,11.20
2015,02,19,17,08,11.20
2015,02,19,17,09,11.20
2015,02,19,17,10,11.20
2015,02,19,17,11,11.20
2015,02,19,17,12,11.10
2015,02,19,17,13,11.10
2015,02,19,17,14,11.10
2015,02,19,17,15,11.10
2015,02,19,17,16,11.10
2015,02,19,17,17,11.10
2015,02,19,17,18,11.10
2015,02,19,17,19,11.10
2015,02,19,17,20,11.10
2015,02,19,17,21,11.10
2015,02,19,17,22,11.10
2015,02,19,17,23,11.00
2015,02,19,17,24,11.00
2015,02,19,17,25,10.90
2015,02,19,17,26,10.90
2015,02,19,17,27,10.80
2015,02,19,17,28,10.80
2015,02,19,17,29,10.80
2015,02,19,17,30,10.70
2015,02,19,17,31,10.70
2015,02,19,17,32,10.70
2015,02,19,17,33,10.70
2015,02,19,17,34,10.70
2015,02,19,17,35,10.70
2015,02,19,17,36,10.60
2015,02,19,17,37,10.60
2015,02,19,17,38,10.60
2015,02,19,17,39,10.60
2015,02,19,17,40,10.60
2015,02,19,17,41,10.60
2015,02,19,17,42,10.50
2015,02,19,17,43,10.50
2015,02,19,17,44,10.50
2015,02,19,17,45,10.50
2015,02,19,17,46,10.50
2015,02,19,17,47,10.40
2015,02,19,17,48,10.40
2015,02,19,17,49,10.40
2015,02,19,17,50,10.40
2015,02,19,17,51,10.40
2015,02,19,17,52,10.40